EWG4DX LIMC-EDDL

Flight info

Callsign EWG4DX
Flight time N/A
Altitude 36000
Route AOSTA DCT ORSUD DCT MOLUS DCT GILIR DCT PENDU DCT IXILU DCT GIVOR DCT SORAL DCT IBERA/N0431F320 N853 DIK/N0428F310 N853 ARCKY T853 NVO T857 BIKMU BIKMU1A
Aircraft A320/M-SDE3FGHIRWY/LB1

Departure

Time 2026-05-07 14:48
Airport Milan Malpensa International Airport (LIMC)

Arrival

Time N/A
Airport Düsseldorf Airport (EDDL)
Time Latitude Longitude Altitude Speed Heading
2026-05-07 14:31 45.62505 8.71750 741 ft 0 kts 259°
2026-05-07 14:37 45.62508 8.71773 740 ft 4 kts 261°
2026-05-07 14:37 45.62519 8.71841 740 ft 4 kts 241°
2026-05-07 14:37 45.62536 8.71860 740 ft 4 kts 178°
2026-05-07 14:38 45.62560 8.71855 741 ft 4 kts 169°
2026-05-07 14:38 45.62583 8.71849 740 ft 1 kts 169°
2026-05-07 14:40 45.62569 8.71852 741 ft 6 kts 169°
2026-05-07 14:40 45.62497 8.71872 741 ft 13 kts 169°
2026-05-07 14:40 45.62403 8.71898 741 ft 15 kts 169°
2026-05-07 14:40 45.62297 8.71927 740 ft 16 kts 169°
2026-05-07 14:41 45.62182 8.71959 741 ft 18 kts 169°
2026-05-07 14:41 45.62054 8.71995 741 ft 20 kts 169°
2026-05-07 14:41 45.61916 8.72032 741 ft 21 kts 169°
2026-05-07 14:41 45.61767 8.72072 741 ft 22 kts 169°
2026-05-07 14:42 45.61611 8.72117 741 ft 24 kts 168°
2026-05-07 14:42 45.61446 8.72162 741 ft 25 kts 169°
2026-05-07 14:42 45.61274 8.72210 741 ft 26 kts 169°
2026-05-07 14:42 45.61096 8.72260 742 ft 26 kts 169°
2026-05-07 14:43 45.60912 8.72310 742 ft 27 kts 169°
2026-05-07 14:43 45.60734 8.72360 742 ft 20 kts 168°
2026-05-07 14:43 45.60641 8.72440 742 ft 16 kts 112°
2026-05-07 14:43 45.60629 8.72608 742 ft 18 kts 96°
2026-05-07 14:44 45.60615 8.72792 742 ft 19 kts 96°
2026-05-07 14:44 45.60600 8.72991 742 ft 21 kts 96°
2026-05-07 14:44 45.60597 8.73204 740 ft 22 kts 71°
2026-05-07 14:44 45.60723 8.73320 741 ft 23 kts 22°
2026-05-07 14:45 45.60876 8.73404 740 ft 24 kts 11°
2026-05-07 14:45 45.61044 8.73366 742 ft 25 kts 349°
2026-05-07 14:45 45.61222 8.73317 742 ft 27 kts 349°
2026-05-07 14:45 45.61409 8.73265 742 ft 28 kts 349°
2026-05-07 14:46 45.61594 8.73219 741 ft 18 kts
2026-05-07 14:46 45.61617 8.73299 741 ft 7 kts 76°
2026-05-07 14:46 45.61629 8.73370 741 ft 10 kts 76°
2026-05-07 14:46 45.61607 8.73489 741 ft 15 kts 122°
2026-05-07 14:47 45.61588 8.73637 740 ft 16 kts 82°
2026-05-07 14:47 45.61625 8.73734 739 ft 10 kts 354°
2026-05-07 14:47 45.61812 8.73682 740 ft 60 kts 349°
2026-05-07 14:47 45.62452 8.73506 742 ft 124 kts 349°
2026-05-07 14:48 45.63482 8.73222 749 ft 173 kts 348°
2026-05-07 14:48 45.64667 8.72887 1363 ft 174 kts 349°
2026-05-07 14:48 45.65868 8.72614 2071 ft 177 kts 356°
2026-05-07 14:48 45.67130 8.72629 2622 ft 185 kts
2026-05-07 14:49 45.68458 8.72647 3123 ft 196 kts
2026-05-07 14:49 45.69859 8.72645 3626 ft 206 kts 360°
2026-05-07 14:49 45.71343 8.72604 4098 ft 222 kts 353°
2026-05-07 14:49 45.72770 8.71695 4631 ft 234 kts 313°
2026-05-07 14:50 45.73486 8.69630 5332 ft 237 kts 274°
2026-05-07 14:50 45.73283 8.67288 6115 ft 240 kts 255°
2026-05-07 14:50 45.72798 8.64994 6924 ft 242 kts 251°
2026-05-07 14:50 45.72254 8.62701 7755 ft 244 kts 251°
2026-05-07 14:51 45.71666 8.60422 8593 ft 246 kts 244°
2026-05-07 14:51 45.70726 8.58285 9112 ft 265 kts 237°
2026-05-07 14:51 45.69664 8.56014 9611 ft 281 kts 238°
2026-05-07 14:51 45.68592 8.53636 10269 ft 291 kts 239°
2026-05-07 14:52 45.67465 8.51091 10541 ft 314 kts 239°
2026-05-07 14:52 45.66262 8.48370 10959 ft 330 kts 239°
2026-05-07 14:52 45.65039 8.45618 11667 ft 334 kts 239°
2026-05-07 14:52 45.63789 8.42809 12477 ft 336 kts 239°
2026-05-07 14:53 45.62449 8.39998 13278 ft 340 kts 232°
2026-05-07 14:53 45.60948 8.37428 14024 ft 342 kts 232°
2026-05-07 14:53 45.59654 8.34572 14682 ft 344 kts 245°
2026-05-07 14:53 45.58890 8.31344 15336 ft 345 kts 259°
2026-05-07 14:54 45.58705 8.27918 15987 ft 348 kts 273°
2026-05-07 14:54 45.59125 8.24505 16635 ft 352 kts 286°
2026-05-07 14:54 45.59865 8.21160 17288 ft 355 kts 287°
2026-05-07 14:54 45.60644 8.17802 17930 ft 358 kts 288°
2026-05-07 14:55 45.61446 8.14411 18519 ft 362 kts 288°
2026-05-07 14:55 45.62259 8.10994 19089 ft 364 kts 288°
2026-05-07 14:55 45.63074 8.07547 19661 ft 367 kts 287°
2026-05-07 14:55 45.63885 8.04075 20243 ft 370 kts 287°
2026-05-07 14:56 45.64693 8.00575 20862 ft 372 kts 287°
2026-05-07 14:56 45.65502 7.97049 21467 ft 374 kts 287°
2026-05-07 14:56 45.66314 7.93500 22012 ft 377 kts 287°
2026-05-07 14:56 45.67130 7.89925 22552 ft 379 kts 287°
2026-05-07 14:57 45.67951 7.86333 23113 ft 382 kts 287°
2026-05-07 14:57 45.68778 7.82711 23658 ft 385 kts 287°
2026-05-07 14:57 45.69601 7.79111 24085 ft 387 kts 287°
2026-05-07 14:57 45.70435 7.75453 24556 ft 388 kts 286°
2026-05-07 14:58 45.71271 7.71775 25011 ft 390 kts 287°
2026-05-07 14:58 45.72112 7.68073 25422 ft 392 kts 286°
2026-05-07 14:58 45.72955 7.64357 25844 ft 393 kts 286°
2026-05-07 14:58 45.73801 7.60614 26234 ft 395 kts 286°
2026-05-07 14:59 45.74644 7.56871 26647 ft 396 kts 286°
2026-05-07 14:59 45.75490 7.53108 27044 ft 398 kts 286°
2026-05-07 14:59 45.76338 7.49335 27353 ft 399 kts 286°
2026-05-07 14:59 45.77191 7.45544 27735 ft 400 kts 286°
2026-05-07 15:00 45.78045 7.41740 28104 ft 402 kts 286°
2026-05-07 15:00 45.79131 7.38038 28461 ft 406 kts 295°
2026-05-07 15:00 45.80684 7.34637 28812 ft 411 kts 305°
2026-05-07 15:00 45.82675 7.31653 29159 ft 418 kts 315°
2026-05-07 15:01 45.85021 7.29123 29436 ft 423 kts 320°
2026-05-07 15:01 45.87430 7.26681 29719 ft 425 kts 320°
2026-05-07 15:01 45.89854 7.24223 29996 ft 427 kts 320°
2026-05-07 15:01 45.92275 7.21758 30308 ft 428 kts 320°
2026-05-07 15:02 45.94705 7.19272 30599 ft 428 kts 320°
2026-05-07 15:02 45.97134 7.16785 30864 ft 429 kts 320°
2026-05-07 15:02 45.99530 7.14334 31104 ft 430 kts 320°
2026-05-07 15:02 46.01974 7.11838 31343 ft 431 kts 320°
2026-05-07 15:03 46.04421 7.09338 31637 ft 430 kts 320°
2026-05-07 15:03 46.06859 7.06842 31950 ft 430 kts 320°
2026-05-07 15:03 46.09290 7.04343 32274 ft 428 kts 320°
2026-05-07 15:03 46.11716 7.01844 32576 ft 428 kts 319°
2026-05-07 15:04 46.14136 6.99354 32896 ft 427 kts 319°
2026-05-07 15:04 46.16548 6.96871 33252 ft 426 kts 320°
2026-05-07 15:04 46.18962 6.94385 33520 ft 425 kts 320°
2026-05-07 15:04 46.21376 6.91896 33815 ft 425 kts 320°
2026-05-07 15:05 46.23746 6.89443 34098 ft 425 kts 319°
2026-05-07 15:05 46.26149 6.86948 34349 ft 425 kts 320°
2026-05-07 15:05 46.28550 6.84452 34592 ft 425 kts 319°
2026-05-07 15:05 46.30955 6.81952 34830 ft 426 kts 320°
2026-05-07 15:06 46.33365 6.79445 35037 ft 427 kts 319°
2026-05-07 15:06 46.35783 6.76932 35231 ft 428 kts 320°
2026-05-07 15:06 46.38212 6.74403 35438 ft 429 kts 320°
2026-05-07 15:06 46.40632 6.71876 35603 ft 430 kts 320°
2026-05-07 15:07 46.43067 6.69336 35780 ft 431 kts 320°
2026-05-07 15:07 46.45641 6.67067 35961 ft 437 kts 329°
2026-05-07 15:07 46.51078 6.63257 36011 ft 436 kts 329°
2026-05-07 15:08 46.56534 6.59424 36008 ft 435 kts 329°
2026-05-07 15:08 46.61983 6.55574 36008 ft 435 kts 329°
2026-05-07 15:09 46.67427 6.51719 36020 ft 435 kts 329°
2026-05-07 15:09 46.72872 6.47855 36017 ft 435 kts 329°
2026-05-07 15:10 46.78318 6.43986 36020 ft 435 kts 329°
2026-05-07 15:10 46.83728 6.40135 36036 ft 436 kts 329°
2026-05-07 15:11 46.89182 6.36238 36044 ft 436 kts 329°
2026-05-07 15:11 46.94633 6.32337 36044 ft 436 kts 329°
2026-05-07 15:12 46.99157 6.29092 36031 ft 436 kts 329°
2026-05-07 15:12 47.04608 6.25170 36046 ft 436 kts 330°
2026-05-07 15:13 47.10056 6.21247 36041 ft 436 kts 330°
2026-05-07 15:13 47.15510 6.17322 36049 ft 436 kts 330°
2026-05-07 15:14 47.20928 6.13415 36047 ft 436 kts 330°
2026-05-07 15:14 47.26374 6.09470 36049 ft 436 kts 330°
2026-05-07 15:15 47.31830 6.05551 36036 ft 438 kts 334°
2026-05-07 15:15 47.37788 6.03426 36035 ft 447 kts 353°
2026-05-07 15:16 47.44038 6.03468 36049 ft 450 kts 357°
2026-05-07 15:16 47.50303 6.03609 36054 ft 450 kts 357°
2026-05-07 15:17 47.56567 6.03752 36053 ft 450 kts 357°
2026-05-07 15:17 47.62838 6.03897 36053 ft 450 kts 357°
2026-05-07 15:18 47.69103 6.04033 36068 ft 450 kts 357°
2026-05-07 15:18 47.75359 6.04677 36061 ft 454 kts
2026-05-07 15:19 47.81503 6.06956 36061 ft 455 kts 11°
2026-05-07 15:19 47.87605 6.09241 36067 ft 455 kts 11°
2026-05-07 15:20 47.93752 6.11549 36067 ft 455 kts 11°
2026-05-07 15:20 47.99888 6.13860 36065 ft 455 kts 11°
2026-05-07 15:21 48.06026 6.16194 36077 ft 455 kts 11°
2026-05-07 15:21 48.12163 6.18530 36075 ft 454 kts 11°
2026-05-07 15:22 48.18293 6.20859 36074 ft 454 kts 11°
2026-05-07 15:22 48.24421 6.23185 36072 ft 454 kts 11°
2026-05-07 15:23 48.30537 6.25521 36080 ft 454 kts 11°
2026-05-07 15:23 48.36653 6.27870 36075 ft 453 kts 11°
2026-05-07 15:24 48.42723 6.30200 36069 ft 453 kts 11°
2026-05-07 15:24 48.48826 6.32544 36074 ft 452 kts 12°
2026-05-07 15:25 48.54927 6.34901 36071 ft 452 kts 12°
2026-05-07 15:25 48.61021 6.37266 36069 ft 452 kts 12°
2026-05-07 15:26 48.67144 6.39277 36068 ft 448 kts
2026-05-07 15:26 48.73359 6.39921 36066 ft 447 kts
2026-05-07 15:27 48.79570 6.40532 36060 ft 447 kts
2026-05-07 15:27 48.85783 6.41146 36058 ft 447 kts
2026-05-07 15:28 48.91951 6.41774 36070 ft 447 kts
2026-05-07 15:28 48.98157 6.42417 36065 ft 447 kts
2026-05-07 15:29 49.04371 6.43058 36065 ft 447 kts
2026-05-07 15:29 49.10580 6.43454 36061 ft 445 kts 353°
2026-05-07 15:30 49.16603 6.41644 36063 ft 440 kts 342°
2026-05-07 15:30 49.22518 6.39205 36055 ft 440 kts 342°
2026-05-07 15:31 49.28437 6.36764 36050 ft 440 kts 342°
2026-05-07 15:31 49.34313 6.34339 36051 ft 440 kts 342°
2026-05-07 15:32 49.40238 6.31906 36059 ft 441 kts 342°
2026-05-07 15:32 49.46163 6.29453 36059 ft 441 kts 342°
2026-05-07 15:33 49.52084 6.26987 36056 ft 441 kts 342°
2026-05-07 15:33 49.58016 6.24550 36061 ft 441 kts 343°
2026-05-07 15:34 49.60992 6.23335 35759 ft 444 kts 343°
2026-05-07 15:34 49.64003 6.22104 34784 ft 450 kts 343°
2026-05-07 15:34 49.67033 6.20862 33917 ft 451 kts 342°
2026-05-07 15:34 49.70067 6.19614 33031 ft 450 kts 343°
2026-05-07 15:35 49.73063 6.18390 32524 ft 441 kts 343°
2026-05-07 15:35 49.76012 6.17187 31941 ft 436 kts 343°
2026-05-07 15:35 49.78929 6.15988 31366 ft 431 kts 343°
2026-05-07 15:35 49.81783 6.14806 30825 ft 427 kts 343°
2026-05-07 15:36 49.84644 6.13647 30244 ft 424 kts 346°
2026-05-07 15:36 49.87556 6.13028 29634 ft 422 kts 355°
2026-05-07 15:36 49.90475 6.13001 29082 ft 417 kts 358°
2026-05-07 15:36 49.93366 6.13024 28536 ft 413 kts 358°
2026-05-07 15:37 49.96222 6.13044 28000 ft 409 kts 358°
2026-05-07 15:37 49.99054 6.13060 27474 ft 405 kts 358°
2026-05-07 15:37 50.01853 6.13074 26964 ft 401 kts 358°
2026-05-07 15:37 50.04633 6.13083 26462 ft 398 kts 358°
2026-05-07 15:38 50.07388 6.13094 25982 ft 395 kts 358°
2026-05-07 15:38 50.10126 6.13109 25493 ft 392 kts 358°
2026-05-07 15:38 50.12841 6.13129 25032 ft 389 kts 358°
2026-05-07 15:38 50.15537 6.13146 24570 ft 386 kts 358°
2026-05-07 15:39 50.18214 6.13163 24102 ft 384 kts 358°
2026-05-07 15:39 50.20877 6.13180 23634 ft 381 kts 358°
2026-05-07 15:39 50.23521 6.13192 23115 ft 379 kts 358°
2026-05-07 15:39 50.26148 6.13212 22653 ft 375 kts 359°
2026-05-07 15:40 50.28734 6.13676 22191 ft 374 kts 11°
2026-05-07 15:40 50.31206 6.14904 21721 ft 373 kts 22°
2026-05-07 15:40 50.33476 6.16846 21258 ft 372 kts 32°
2026-05-07 15:40 50.35630 6.19070 20775 ft 370 kts 32°
2026-05-07 15:41 50.37776 6.21276 20299 ft 368 kts 32°
2026-05-07 15:41 50.39919 6.23473 19819 ft 367 kts 32°
2026-05-07 15:41 50.42052 6.25663 19338 ft 366 kts 32°
2026-05-07 15:41 50.44152 6.27828 18879 ft 365 kts 32°
2026-05-07 15:42 50.46272 6.30015 18399 ft 364 kts 32°
2026-05-07 15:42 50.48388 6.32198 17897 ft 363 kts 32°
2026-05-07 15:42 50.50496 6.34340 17432 ft 360 kts 31°
2026-05-07 15:42 50.52630 6.36376 16993 ft 357 kts 29°
2026-05-07 15:43 50.54775 6.38337 16540 ft 355 kts 28°
2026-05-07 15:43 50.56914 6.40256 16095 ft 353 kts 28°
2026-05-07 15:43 50.59045 6.42169 15659 ft 352 kts 28°
2026-05-07 15:43 50.61161 6.44085 15230 ft 350 kts 29°
2026-05-07 15:44 50.63261 6.46004 14785 ft 348 kts 29°